User: anonymous   Login
Location: Caltech
(34.1382°N, 118.1253°W)
Time: 18:16:56
(UTC-07:00)
Language:

Lacrosse 5 rocket - Orbit

View from above orbital plane
View from above orbital plane
View from above satellite
View from above satellite

Ground track
Ground track

The orbit data is extracted from the following two-line orbital elements,

1 28647U 05016B   17142.99034152 0.00000400  00000-0  23602-4 0    01
2 28647  56.9940 117.8311 0122295 281.5867  78.4132 15.04938050    02
Epoch (UTC): 22 May 2017 23:46:05
Eccentricity: 0.0122295
inclination: 56.9940°
perigee height: 467 km
apogee height: 636 km
right ascension of ascending node: 117.8311°
argument of perigee: 281.5867°
revolutions per day: 15.04938050
mean anomaly at epoch: 78.4132°
orbit number at epoch: 0

The dashed part of the orbit path shows where the satellite is in the earth's shadow,  

DLR